Time,TemperatureF,DewpointF,PressureIn,WindDirection,WindDirectionDegrees,WindSpeedMPH,WindSpeedGustMPH,Humidity,HourlyPrecipIn,Conditions,Clouds,dailyrainin,SoftwareType,DateUTC
2013-07-02 00:01:00,70.2,49.6,30.23,North,1,4.0,6.0,48,0.00,,,0.00,meteohub,2013-07-02 05:01:00,
2013-07-02 00:06:00,70.2,49.6,30.24,NW,325,4.0,5.0,48,0.00,,,0.00,meteohub,2013-07-02 05:06:00,
2013-07-02 00:11:00,70.0,49.5,30.23,North,1,5.0,6.0,48,0.00,,,0.00,meteohub,2013-07-02 05:11:00,
2013-07-02 00:16:00,69.8,49.3,30.23,NW,314,3.0,6.0,48,0.00,,,0.00,meteohub,2013-07-02 05:16:00,
2013-07-02 00:21:00,69.6,49.6,30.23,NNW,332,2.0,6.0,49,0.00,,,0.00,meteohub,2013-07-02 05:21:00,
2013-07-02 00:26:00,69.3,49.8,30.23,NW,326,2.0,6.0,50,0.00,,,0.00,meteohub,2013-07-02 05:26:00,
2013-07-02 00:31:00,68.9,49.5,30.23,NNW,340,2.0,5.0,50,0.00,,,0.00,meteohub,2013-07-02 05:31:00,
2013-07-02 00:36:00,68.7,50.4,30.23,NW,310,2.0,4.0,52,0.00,,,0.00,meteohub,2013-07-02 05:36:00,
2013-07-02 00:41:00,68.5,50.2,30.23,NW,313,1.0,4.0,52,0.00,,,0.00,meteohub,2013-07-02 05:41:00,
2013-07-02 00:46:00,68.4,51.1,30.23,NW,307,2.0,3.0,54,0.00,,,0.00,meteohub,2013-07-02 05:46:00,
2013-07-02 00:51:00,67.8,51.1,30.23,WNW,287,2.0,4.0,55,0.00,,,0.00,meteohub,2013-07-02 05:51:00,
2013-07-02 00:56:00,67.6,50.9,30.23,WNW,287,3.0,4.0,55,0.00,,,0.00,meteohub,2013-07-02 05:56:00,
2013-07-02 01:01:00,67.5,51.6,30.23,WNW,301,3.0,4.0,57,0.00,,,0.00,meteohub,2013-07-02 06:01:00,
2013-07-02 01:07:00,67.1,51.8,30.23,WNW,293,2.0,4.0,58,0.00,,,0.00,meteohub,2013-07-02 06:07:00,
2013-07-02 01:12:00,66.7,52.0,30.23,WNW,297,3.0,4.0,59,0.00,,,0.00,meteohub,2013-07-02 06:12:00,
2013-07-02 01:17:00,66.6,51.8,30.23,WNW,301,2.0,4.0,59,0.00,,,0.00,meteohub,2013-07-02 06:17:00,
2013-07-02 01:22:00,66.6,51.8,30.23,WNW,298,2.0,4.0,59,0.00,,,0.00,meteohub,2013-07-02 06:22:00,
2013-07-02 01:27:00,66.4,51.6,30.23,WNW,293,3.0,4.0,59,0.00,,,0.00,meteohub,2013-07-02 06:27:00,
2013-07-02 01:32:00,66.2,51.4,30.23,WNW,287,3.0,4.0,59,0.00,,,0.00,meteohub,2013-07-02 06:32:00,
2013-07-02 01:37:00,66.0,51.3,30.23,WNW,301,3.0,4.0,59,0.00,,,0.00,meteohub,2013-07-02 06:37:00,
2013-07-02 01:42:00,65.8,51.6,30.23,WNW,301,4.0,5.0,60,0.00,,,0.00,meteohub,2013-07-02 06:42:00,
2013-07-02 01:47:00,65.7,51.8,30.23,WNW,295,3.0,5.0,61,0.00,,,0.00,meteohub,2013-07-02 06:47:00,
2013-07-02 01:52:00,65.5,51.6,30.23,WNW,290,3.0,5.0,61,0.00,,,0.00,meteohub,2013-07-02 06:52:00,
2013-07-02 01:57:00,65.3,51.4,30.22,NW,304,4.0,5.0,61,0.00,,,0.00,meteohub,2013-07-02 06:57:00,
2013-07-02 02:02:00,65.1,51.8,30.22,WNW,293,3.0,5.0,62,0.00,,,0.00,meteohub,2013-07-02 07:02:00,
2013-07-02 02:07:00,64.9,51.1,30.22,WNW,299,2.0,5.0,61,0.00,,,0.00,meteohub,2013-07-02 07:07:00,
2013-07-02 02:12:00,64.9,51.1,30.22,NW,304,3.0,5.0,61,0.00,,,0.00,meteohub,2013-07-02 07:12:00,
2013-07-02 02:17:00,64.9,51.6,30.22,NW,309,3.0,4.0,62,0.00,,,0.00,meteohub,2013-07-02 07:17:00,
2013-07-02 02:22:00,64.8,51.4,30.22,NW,304,4.0,5.0,62,0.00,,,0.00,meteohub,2013-07-02 07:22:00,
2013-07-02 02:27:00,64.6,51.3,30.22,WNW,294,5.0,5.0,62,0.00,,,0.00,meteohub,2013-07-02 07:27:00,
2013-07-02 02:32:00,64.6,51.3,30.22,WNW,287,4.0,5.0,62,0.00,,,0.00,meteohub,2013-07-02 07:32:00,
2013-07-02 02:37:00,64.4,51.1,30.22,NW,307,3.0,5.0,62,0.00,,,0.00,meteohub,2013-07-02 07:37:00,
2013-07-02 02:42:00,64.2,50.9,30.22,WNW,297,2.0,5.0,62,0.00,,,0.00,meteohub,2013-07-02 07:42:00,
2013-07-02 02:47:00,64.2,50.9,30.22,WNW,290,1.0,5.0,62,0.00,,,0.00,meteohub,2013-07-02 07:47:00,
2013-07-02 02:52:00,64.2,50.9,30.22,NW,304,2.0,5.0,62,0.00,,,0.00,meteohub,2013-07-02 07:52:00,
2013-07-02 02:57:00,64.2,50.9,30.22,NW,304,3.0,6.0,62,0.00,,,0.00,meteohub,2013-07-02 07:57:00,
2013-07-02 03:02:00,64.0,50.7,30.22,WNW,297,3.0,6.0,62,0.00,,,0.00,meteohub,2013-07-02 08:02:00,
2013-07-02 03:07:00,64.0,51.3,30.22,WNW,295,2.0,6.0,63,0.00,,,0.00,meteohub,2013-07-02 08:07:00,
2013-07-02 03:12:00,63.9,51.1,30.22,WNW,293,1.0,5.0,63,0.00,,,0.00,meteohub,2013-07-02 08:12:00,
2013-07-02 03:17:00,63.9,51.1,30.22,WNW,300,2.0,5.0,63,0.00,,,0.00,meteohub,2013-07-02 08:17:00,
2013-07-02 03:22:00,63.7,50.9,30.22,WNW,283,3.0,4.0,63,0.00,,,0.00,meteohub,2013-07-02 08:22:00,
2013-07-02 03:26:00,63.7,50.9,30.22,NW,309,3.0,4.0,63,0.00,,,0.00,meteohub,2013-07-02 08:26:00,
2013-07-02 03:32:00,63.7,50.9,30.22,NW,307,3.0,4.0,63,0.00,,,0.00,meteohub,2013-07-02 08:32:00,
2013-07-02 03:37:00,63.9,50.5,30.22,WNW,301,3.0,5.0,62,0.00,,,0.00,meteohub,2013-07-02 08:37:00,
2013-07-02 03:42:00,63.9,50.5,30.22,NW,322,3.0,5.0,62,0.00,,,0.00,meteohub,2013-07-02 08:42:00,
2013-07-02 03:47:00,63.9,51.1,30.22,NW,322,2.0,5.0,63,0.00,,,0.00,meteohub,2013-07-02 08:47:00,
2013-07-02 03:52:00,63.9,50.5,30.22,NW,304,5.0,5.0,62,0.00,,,0.00,meteohub,2013-07-02 08:52:00,
2013-07-02 03:57:00,63.9,50.5,30.22,NW,307,2.0,7.0,62,0.00,,,0.00,meteohub,2013-07-02 08:57:00,
2013-07-02 04:02:00,63.7,50.4,30.22,WNW,293,5.0,8.0,62,0.00,,,0.00,meteohub,2013-07-02 09:02:00,
2013-07-02 04:07:00,63.7,50.9,30.22,NNW,329,3.0,8.0,63,0.00,,,0.00,meteohub,2013-07-02 09:07:00,
2013-07-02 04:12:00,63.5,50.7,30.22,NW,318,3.0,8.0,63,0.00,,,0.00,meteohub,2013-07-02 09:12:00,
2013-07-02 04:17:00,63.3,50.9,30.22,NW,307,3.0,6.0,64,0.00,,,0.00,meteohub,2013-07-02 09:17:00,
2013-07-02 04:22:00,63.1,50.7,30.22,NW,309,5.0,5.0,64,0.00,,,0.00,meteohub,2013-07-02 09:22:00,
2013-07-02 04:27:00,63.1,50.7,30.22,NNW,343,3.0,6.0,64,0.00,,,0.00,meteohub,2013-07-02 09:27:00,
2013-07-02 04:32:00,63.1,50.7,30.22,NNW,329,3.0,6.0,64,0.00,,,0.00,meteohub,2013-07-02 09:32:00,
2013-07-02 04:37:00,63.1,51.3,30.22,NW,316,5.0,6.0,65,0.00,,,0.00,meteohub,2013-07-02 09:37:00,
2013-07-02 04:42:00,63.0,51.1,30.22,NW,311,2.0,6.0,65,0.00,,,0.00,meteohub,2013-07-02 09:42:00,
2013-07-02 04:47:00,62.8,50.9,30.23,NW,314,3.0,5.0,65,0.00,,,0.00,meteohub,2013-07-02 09:47:00,
2013-07-02 04:52:00,63.0,51.1,30.23,NW,309,4.0,5.0,65,0.00,,,0.00,meteohub,2013-07-02 09:52:00,
2013-07-02 04:57:00,63.0,51.1,30.23,NW,315,4.0,6.0,65,0.00,,,0.00,meteohub,2013-07-02 09:57:00,
2013-07-02 05:02:00,62.8,50.9,30.23,NW,322,3.0,6.0,65,0.00,,,0.00,meteohub,2013-07-02 10:02:00,
2013-07-02 05:07:00,62.6,50.7,30.23,NW,308,4.0,6.0,65,0.00,,,0.00,meteohub,2013-07-02 10:07:00,
2013-07-02 05:12:00,62.4,50.5,30.23,NW,309,3.0,5.0,65,0.00,,,0.00,meteohub,2013-07-02 10:12:00,
2013-07-02 05:17:00,62.4,50.0,30.23,NW,314,5.0,5.0,64,0.00,,,0.00,meteohub,2013-07-02 10:17:00,
2013-07-02 05:22:00,62.6,50.2,30.23,WNW,291,5.0,6.0,64,0.00,,,0.00,meteohub,2013-07-02 10:22:00,
2013-07-02 05:27:00,62.4,50.0,30.23,NNW,347,4.0,6.0,64,0.00,,,0.00,meteohub,2013-07-02 10:27:00,
2013-07-02 05:32:00,62.4,50.5,30.23,WNW,294,2.0,7.0,65,0.00,,,0.00,meteohub,2013-07-02 10:32:00,
2013-07-02 05:37:00,62.2,50.4,30.23,NW,325,5.0,7.0,65,0.00,,,0.00,meteohub,2013-07-02 10:37:00,
2013-07-02 05:41:00,62.2,50.4,30.24,North,11,2.0,7.0,65,0.00,,,0.00,meteohub,2013-07-02 10:41:00,
2013-07-02 05:47:00,62.2,50.4,30.24,NNW,329,5.0,6.0,65,0.00,,,0.00,meteohub,2013-07-02 10:47:00,
2013-07-02 05:52:00,62.2,50.4,30.24,North,350,4.0,6.0,65,0.00,,,0.00,meteohub,2013-07-02 10:52:00,
2013-07-02 05:57:00,62.1,50.5,30.24,NW,314,6.0,7.0,66,0.00,,,0.00,meteohub,2013-07-02 10:57:00,
2013-07-02 06:02:00,62.1,50.5,30.24,NW,307,5.0,9.0,66,0.00,,,0.00,meteohub,2013-07-02 11:02:00,
2013-07-02 06:07:00,62.2,50.4,30.25,NNW,332,4.0,9.0,65,0.00,,,0.00,meteohub,2013-07-02 11:07:00,
2013-07-02 06:12:00,62.2,50.7,30.25,NNW,332,4.0,9.0,66,0.00,,,0.00,meteohub,2013-07-02 11:12:00,
2013-07-02 06:17:00,62.2,50.4,30.25,WNW,298,4.0,7.0,65,0.00,,,0.00,meteohub,2013-07-02 11:17:00,
2013-07-02 06:22:00,62.2,50.7,30.25,NW,314,3.0,8.0,66,0.00,,,0.00,meteohub,2013-07-02 11:22:00,
2013-07-02 06:27:00,62.1,50.5,30.25,NW,306,5.0,8.0,66,0.00,,,0.00,meteohub,2013-07-02 11:27:00,
2013-07-02 06:32:00,62.1,50.2,30.25,WNW,288,4.0,8.0,65,0.00,,,0.00,meteohub,2013-07-02 11:32:00,
2013-07-02 06:37:00,62.1,50.5,30.25,NNW,332,3.0,8.0,66,0.00,,,0.00,meteohub,2013-07-02 11:37:00,
2013-07-02 06:42:00,62.1,50.2,30.25,NW,323,6.0,8.0,65,0.00,,,0.00,meteohub,2013-07-02 11:42:00,
2013-07-02 06:47:00,62.2,50.7,30.25,NW,309,4.0,12.0,66,0.00,,,0.00,meteohub,2013-07-02 11:47:00,
2013-07-02 06:52:00,62.2,50.7,30.25,WNW,300,5.0,12.0,66,0.00,,,0.00,meteohub,2013-07-02 11:52:00,
2013-07-02 06:56:00,62.4,50.5,30.25,NW,307,5.0,8.0,65,0.00,,,0.00,meteohub,2013-07-02 11:56:00,
2013-07-02 07:01:00,62.4,50.5,30.25,NW,323,4.0,8.0,65,0.00,,,0.00,meteohub,2013-07-02 12:01:00,
2013-07-02 07:07:00,62.6,50.7,30.25,NW,320,5.0,8.0,65,0.00,,,0.00,meteohub,2013-07-02 12:07:00,
2013-07-02 07:12:00,62.8,50.9,30.25,NW,322,6.0,8.0,65,0.00,,,0.00,meteohub,2013-07-02 12:12:00,
2013-07-02 07:17:00,62.8,50.9,30.25,NNW,343,4.0,9.0,65,0.00,,,0.00,meteohub,2013-07-02 12:17:00,
2013-07-02 07:22:00,63.0,50.5,30.25,WNW,298,6.0,10.0,64,0.00,,,0.00,meteohub,2013-07-02 12:22:00,
2013-07-02 07:27:00,63.1,50.7,30.25,WNW,300,4.0,10.0,64,0.00,,,0.00,meteohub,2013-07-02 12:27:00,
2013-07-02 07:32:00,63.3,50.9,30.25,NW,309,5.0,10.0,64,0.00,,,0.00,meteohub,2013-07-02 12:32:00,
2013-07-02 07:37:00,63.7,51.3,30.25,NW,323,3.0,9.0,64,0.00,,,0.00,meteohub,2013-07-02 12:37:00,
2013-07-02 07:42:00,63.9,51.1,30.25,North,353,6.0,9.0,63,0.00,,,0.00,meteohub,2013-07-02 12:42:00,
2013-07-02 07:47:00,64.0,51.3,30.25,North,354,6.0,10.0,63,0.00,,,0.00,meteohub,2013-07-02 12:47:00,
2013-07-02 07:52:00,64.4,51.6,30.25,NW,326,5.0,11.0,63,0.00,,,0.00,meteohub,2013-07-02 12:52:00,
2013-07-02 07:57:00,64.8,51.8,30.25,NW,322,4.0,11.0,63,0.00,,,0.00,meteohub,2013-07-02 12:57:00,
2013-07-02 08:02:00,64.9,51.6,30.25,NNW,334,4.0,11.0,62,0.00,,,0.00,meteohub,2013-07-02 13:02:00,
2013-07-02 08:07:00,65.5,52.2,30.26,North,1,7.0,10.0,62,0.00,,,0.00,meteohub,2013-07-02 13:07:00,
2013-07-02 08:12:00,65.5,51.6,30.26,North,356,9.0,9.0,61,0.00,,,0.00,meteohub,2013-07-02 13:12:00,
2013-07-02 08:17:00,65.7,52.3,30.26,NNW,335,6.0,12.0,62,0.00,,,0.00,meteohub,2013-07-02 13:17:00,
2013-07-02 08:22:00,66.0,52.2,30.26,NNW,339,4.0,12.0,61,0.00,,,0.00,meteohub,2013-07-02 13:22:00,
2013-07-02 08:27:00,66.2,52.3,30.26,North,350,10.0,12.0,61,0.00,,,0.00,meteohub,2013-07-02 13:27:00,
2013-07-02 08:32:00,66.4,52.5,30.26,North,4,10.0,12.0,61,0.00,,,0.00,meteohub,2013-07-02 13:32:00,
2013-07-02 08:37:00,66.4,52.5,30.26,NW,323,7.0,13.0,61,0.00,,,0.00,meteohub,2013-07-02 13:37:00,
2013-07-02 08:42:00,66.6,52.7,30.26,North,8,8.0,13.0,61,0.00,,,0.00,meteohub,2013-07-02 13:42:00,
2013-07-02 08:47:00,66.9,53.1,30.26,NW,309,7.0,13.0,61,0.00,,,0.00,meteohub,2013-07-02 13:47:00,
2013-07-02 08:52:00,67.3,53.4,30.25,NW,318,6.0,12.0,61,0.00,,,0.00,meteohub,2013-07-02 13:52:00,
2013-07-02 08:57:00,67.6,54.1,30.25,NNW,332,8.0,11.0,62,0.00,,,0.00,meteohub,2013-07-02 13:57:00,
2013-07-02 09:02:00,68.2,53.8,30.26,North,8,7.0,10.0,60,0.00,,,0.00,meteohub,2013-07-02 14:02:00,
2013-07-02 09:07:00,68.2,54.1,30.26,NW,326,9.0,10.0,61,0.00,,,0.00,meteohub,2013-07-02 14:07:00,
2013-07-02 09:12:00,68.2,54.1,30.26,North,353,3.0,10.0,61,0.00,,,0.00,meteohub,2013-07-02 14:12:00,
2013-07-02 09:17:00,68.7,54.7,30.26,North,5,6.0,10.0,61,0.00,,,0.00,meteohub,2013-07-02 14:17:00,
2013-07-02 09:22:00,68.9,54.9,30.26,NW,319,6.0,10.0,61,0.00,,,0.00,meteohub,2013-07-02 14:22:00,
2013-07-02 09:27:00,69.3,55.2,30.26,North,354,8.0,8.0,61,0.00,,,0.00,meteohub,2013-07-02 14:27:00,
2013-07-02 09:32:00,70.0,55.4,30.26,NW,311,3.0,9.0,60,0.00,,,0.00,meteohub,2013-07-02 14:32:00,
2013-07-02 09:37:00,70.3,54.9,30.26,NE,44,9.0,9.0,58,0.00,,,0.00,meteohub,2013-07-02 14:37:00,
2013-07-02 09:42:00,70.2,54.7,30.26,NE,49,4.0,10.0,58,0.00,,,0.00,meteohub,2013-07-02 14:42:00,
2013-07-02 09:47:00,70.5,54.5,30.26,NNW,343,7.0,10.0,57,0.00,,,0.00,meteohub,2013-07-02 14:47:00,
2013-07-02 09:52:00,70.9,54.9,30.26,NE,54,3.0,10.0,57,0.00,,,0.00,meteohub,2013-07-02 14:52:00,
2013-07-02 09:57:00,71.2,55.2,30.25,NNE,20,3.0,9.0,57,0.00,,,0.00,meteohub,2013-07-02 14:57:00,
2013-07-02 10:02:00,71.4,55.4,30.25,NE,50,1.0,8.0,57,0.00,,,0.00,meteohub,2013-07-02 15:02:00,
2013-07-02 10:07:00,72.1,55.0,30.25,NW,326,3.0,7.0,55,0.00,,,0.00,meteohub,2013-07-02 15:07:00,
2013-07-02 10:12:00,72.3,55.2,30.25,NW,325,6.0,8.0,55,0.00,,,0.00,meteohub,2013-07-02 15:12:00,
2013-07-02 10:17:00,72.7,55.0,30.25,North,11,6.0,8.0,54,0.00,,,0.00,meteohub,2013-07-02 15:17:00,
2013-07-02 10:22:00,73.0,55.4,30.26,NW,307,2.0,8.0,54,0.00,,,0.00,meteohub,2013-07-02 15:22:00,
2013-07-02 10:27:00,73.9,55.2,30.26,NE,44,5.0,8.0,52,0.00,,,0.00,meteohub,2013-07-02 15:27:00,
2013-07-02 10:32:00,73.8,55.0,30.26,NW,326,4.0,8.0,52,0.00,,,0.00,meteohub,2013-07-02 15:32:00,
2013-07-02 10:37:00,73.6,55.9,30.26,West,266,0.0,9.0,54,0.00,,,0.00,meteohub,2013-07-02 15:37:00,
2013-07-02 10:42:00,74.5,55.8,30.26,NE,39,5.0,9.0,52,0.00,,,0.00,meteohub,2013-07-02 15:42:00,
2013-07-02 10:47:00,73.9,55.2,30.25,ENE,78,1.0,10.0,52,0.00,,,0.00,meteohub,2013-07-02 15:47:00,
2013-07-02 10:52:00,74.3,56.1,30.26,NNW,342,2.0,10.0,53,0.00,,,0.00,meteohub,2013-07-02 15:52:00,
2013-07-02 10:57:00,74.8,55.6,30.26,NNW,331,6.0,10.0,51,0.00,,,0.00,meteohub,2013-07-02 15:57:00,
2013-07-02 11:02:00,74.8,56.1,30.25,NE,47,4.0,10.0,52,0.00,,,0.00,meteohub,2013-07-02 16:02:00,
2013-07-02 11:07:00,75.7,54.7,30.26,NE,53,9.0,11.0,48,0.00,,,0.00,meteohub,2013-07-02 16:07:00,
2013-07-02 11:12:00,75.7,55.2,30.26,ENE,65,3.0,15.0,49,0.00,,,0.00,meteohub,2013-07-02 16:12:00,
2013-07-02 11:17:00,76.3,55.2,30.26,ENE,67,6.0,15.0,48,0.00,,,0.00,meteohub,2013-07-02 16:17:00,
2013-07-02 11:22:00,76.1,55.6,30.26,NE,50,3.0,15.0,49,0.00,,,0.00,meteohub,2013-07-02 16:22:00,
2013-07-02 11:27:00,76.3,55.2,30.25,ENE,67,6.0,14.0,48,0.00,,,0.00,meteohub,2013-07-02 16:27:00,
2013-07-02 11:32:00,76.5,55.9,30.25,NE,53,10.0,14.0,49,0.00,,,0.00,meteohub,2013-07-02 16:32:00,
2013-07-02 11:37:00,76.5,53.6,30.25,NE,46,11.0,14.0,45,0.00,,,0.00,meteohub,2013-07-02 16:37:00,
2013-07-02 11:42:00,77.2,52.9,30.25,NNE,18,12.0,14.0,43,0.00,,,0.00,meteohub,2013-07-02 16:42:00,
2013-07-02 11:47:00,77.7,52.9,30.25,NNE,22,8.0,14.0,42,0.00,,,0.00,meteohub,2013-07-02 16:47:00,
2013-07-02 11:52:00,78.1,53.1,30.25,NW,312,7.0,14.0,42,0.00,,,0.00,meteohub,2013-07-02 16:52:00,
2013-07-02 11:57:00,78.3,53.2,30.25,NE,50,10.0,15.0,42,0.00,,,0.00,meteohub,2013-07-02 16:57:00,
2013-07-02 12:02:00,79.0,52.5,30.25,NE,46,9.0,15.0,40,0.00,,,0.00,meteohub,2013-07-02 17:02:00,
2013-07-02 12:07:00,79.2,52.7,30.25,NE,44,5.0,15.0,40,0.00,,,0.00,meteohub,2013-07-02 17:07:00,
2013-07-02 12:12:00,78.6,52.9,30.25,ENE,60,8.0,15.0,41,0.00,,,0.00,meteohub,2013-07-02 17:12:00,
2013-07-02 12:17:00,79.0,52.5,30.25,ENE,74,12.0,18.0,40,0.00,,,0.00,meteohub,2013-07-02 17:17:00,
2013-07-02 12:22:00,78.8,52.5,30.25,ENE,70,11.0,18.0,40,0.00,,,0.00,meteohub,2013-07-02 17:22:00,
2013-07-02 12:27:00,79.2,52.2,30.24,ENE,60,6.0,18.0,39,0.00,,,0.00,meteohub,2013-07-02 17:27:00,
2013-07-02 12:32:00,79.2,52.7,30.24,North,1,10.0,18.0,40,0.00,,,0.00,meteohub,2013-07-02 17:32:00,
2013-07-02 12:37:00,79.3,52.9,30.24,NE,46,12.0,19.0,40,0.00,,,0.00,meteohub,2013-07-02 17:37:00,
2013-07-02 12:42:00,79.5,51.6,30.24,NNE,23,10.0,20.0,38,0.00,,,0.00,meteohub,2013-07-02 17:42:00,
2013-07-02 12:47:00,80.2,52.3,30.24,NE,46,18.0,20.0,38,0.00,,,0.00,meteohub,2013-07-02 17:47:00,
2013-07-02 12:52:00,79.5,51.6,30.24,NE,53,15.0,20.0,38,0.00,,,0.00,meteohub,2013-07-02 17:52:00,
2013-07-02 12:57:00,79.2,51.4,30.23,NE,43,5.0,18.0,38,0.00,,,0.00,meteohub,2013-07-02 17:57:00,
2013-07-02 13:02:00,79.5,51.6,30.23,NNE,15,9.0,18.0,38,0.00,,,0.00,meteohub,2013-07-02 18:02:00,
2013-07-02 13:07:00,80.2,50.9,30.23,ENE,58,14.0,19.0,36,0.00,,,0.00,meteohub,2013-07-02 18:07:00,
2013-07-02 13:12:00,80.2,50.9,30.23,ENE,71,9.0,19.0,36,0.00,,,0.00,meteohub,2013-07-02 18:12:00,
2013-07-02 13:17:00,80.2,50.9,30.23,NE,43,9.0,18.0,36,0.00,,,0.00,meteohub,2013-07-02 18:17:00,
2013-07-02 13:22:00,80.6,49.6,30.23,NNE,26,14.0,18.0,34,0.00,,,0.00,meteohub,2013-07-02 18:22:00,
2013-07-02 13:27:00,80.4,50.2,30.23,NE,46,12.0,21.0,35,0.00,,,0.00,meteohub,2013-07-02 18:27:00,
2013-07-02 13:32:00,80.4,50.2,30.23,ENE,61,9.0,21.0,35,0.00,,,0.00,meteohub,2013-07-02 18:32:00,
2013-07-02 13:37:00,81.1,49.3,30.22,NE,51,16.0,21.0,33,0.00,,,0.00,meteohub,2013-07-02 18:37:00,
2013-07-02 13:42:00,81.1,48.6,30.22,NE,46,16.0,19.0,32,0.00,,,0.00,meteohub,2013-07-02 18:42:00,
2013-07-02 13:47:00,81.0,45.7,30.22,NE,47,20.0,22.0,29,0.00,,,0.00,meteohub,2013-07-02 18:47:00,
2013-07-02 13:52:00,81.0,47.5,30.22,NNE,29,12.0,22.0,31,0.00,,,0.00,meteohub,2013-07-02 18:52:00,
2013-07-02 13:57:00,81.5,48.0,30.22,NE,50,15.0,21.0,31,0.00,,,0.00,meteohub,2013-07-02 18:57:00,
2013-07-02 14:02:00,80.8,47.3,30.22,ENE,63,13.0,21.0,31,0.00,,,0.00,meteohub,2013-07-02 19:02:00,
2013-07-02 14:07:00,81.1,47.7,30.22,ENE,58,8.0,21.0,31,0.00,,,0.00,meteohub,2013-07-02 19:07:00,
2013-07-02 14:12:00,81.1,48.6,30.21,NE,39,2.0,20.0,32,0.00,,,0.00,meteohub,2013-07-02 19:12:00,
2013-07-02 14:17:00,81.5,48.0,30.21,ENE,67,13.0,20.0,31,0.00,,,0.00,meteohub,2013-07-02 19:17:00,
2013-07-02 14:22:00,81.9,48.2,30.21,NNE,22,4.0,18.0,31,0.00,,,0.00,meteohub,2013-07-02 19:22:00,
2013-07-02 14:27:00,82.2,48.6,30.21,NW,321,8.0,18.0,31,0.00,,,0.00,meteohub,2013-07-02 19:27:00,
2013-07-02 14:33:00,81.9,43.7,30.21,NNE,29,10.0,18.0,26,0.00,,,0.00,meteohub,2013-07-02 19:33:00,
2013-07-02 14:38:00,82.2,45.9,30.20,ENE,60,13.0,23.0,28,0.00,,,0.00,meteohub,2013-07-02 19:38:00,
2013-07-02 14:43:00,82.0,46.6,30.21,ENE,62,10.0,23.0,29,0.00,,,0.00,meteohub,2013-07-02 19:43:00,
2013-07-02 14:48:00,81.7,46.4,30.20,NE,44,17.0,23.0,29,0.00,,,0.00,meteohub,2013-07-02 19:48:00,
2013-07-02 14:53:00,82.2,45.0,30.20,ESE,107,6.0,23.0,27,0.00,,,0.00,meteohub,2013-07-02 19:53:00,
2013-07-02 14:58:00,82.8,44.4,30.20,NE,46,10.0,23.0,26,0.00,,,0.00,meteohub,2013-07-02 19:58:00,
2013-07-02 15:03:00,82.8,44.4,30.20,NE,56,13.0,23.0,26,0.00,,,0.00,meteohub,2013-07-02 20:03:00,
2013-07-02 15:08:00,83.7,43.0,30.19,NNE,18,13.0,23.0,24,0.00,,,0.00,meteohub,2013-07-02 20:08:00,
2013-07-02 15:13:00,82.9,43.5,30.19,ENE,74,10.0,22.0,25,0.00,,,0.00,meteohub,2013-07-02 20:13:00,
2013-07-02 15:18:00,82.8,43.3,30.19,ENE,60,16.0,21.0,25,0.00,,,0.00,meteohub,2013-07-02 20:18:00,
2013-07-02 15:23:00,82.9,42.4,30.19,NE,55,16.0,23.0,24,0.00,,,0.00,meteohub,2013-07-02 20:23:00,
2013-07-02 15:28:00,83.1,41.5,30.19,ENE,75,11.0,23.0,23,0.00,,,0.00,meteohub,2013-07-02 20:28:00,
2013-07-02 15:33:00,83.1,43.7,30.19,ENE,57,9.0,24.0,25,0.00,,,0.00,meteohub,2013-07-02 20:33:00,
2013-07-02 15:38:00,82.8,42.3,30.19,East,81,14.0,27.0,24,0.00,,,0.00,meteohub,2013-07-02 20:38:00,
2013-07-02 15:43:00,82.8,42.3,30.18,NE,53,5.0,27.0,24,0.00,,,0.00,meteohub,2013-07-02 20:43:00,
2013-07-02 15:48:00,83.7,40.8,30.18,NE,36,13.0,27.0,22,0.00,,,0.00,meteohub,2013-07-02 20:48:00,
2013-07-02 15:53:00,84.2,42.4,30.18,North,350,15.0,23.0,23,0.00,,,0.00,meteohub,2013-07-02 20:53:00,
2013-07-02 15:58:00,84.2,41.2,30.18,ENE,70,11.0,20.0,22,0.00,,,0.00,meteohub,2013-07-02 20:58:00,
2013-07-02 16:03:00,83.8,41.0,30.18,NE,49,9.0,20.0,22,0.00,,,0.00,meteohub,2013-07-02 21:03:00,
2013-07-02 16:08:00,83.8,41.0,30.18,NE,34,4.0,18.0,22,0.00,,,0.00,meteohub,2013-07-02 21:08:00,
2013-07-02 16:13:00,83.5,39.4,30.18,NE,53,15.0,17.0,21,0.00,,,0.00,meteohub,2013-07-02 21:13:00,
2013-07-02 16:18:00,83.1,39.2,30.18,NE,50,7.0,20.0,21,0.00,,,0.00,meteohub,2013-07-02 21:18:00,
2013-07-02 16:23:00,83.5,39.4,30.18,NE,47,14.0,20.0,21,0.00,,,0.00,meteohub,2013-07-02 21:23:00,
2013-07-02 16:28:00,83.7,39.6,30.18,NE,41,13.0,20.0,21,0.00,,,0.00,meteohub,2013-07-02 21:28:00,
2013-07-02 16:33:00,83.7,37.0,30.17,NE,51,8.0,20.0,19,0.00,,,0.00,meteohub,2013-07-02 21:33:00,
2013-07-02 16:38:00,84.0,39.9,30.17,NE,53,10.0,18.0,21,0.00,,,0.00,meteohub,2013-07-02 21:38:00,
2013-07-02 16:43:00,84.0,37.4,30.17,ENE,60,12.0,18.0,19,0.00,,,0.00,meteohub,2013-07-02 21:43:00,
2013-07-02 16:48:00,84.4,40.1,30.17,NE,36,5.0,24.0,21,0.00,,,0.00,meteohub,2013-07-02 21:48:00,
2013-07-02 16:53:00,83.5,40.6,30.17,ENE,57,10.0,24.0,22,0.00,,,0.00,meteohub,2013-07-02 21:53:00,
2013-07-02 16:58:00,84.0,38.7,30.17,NE,43,14.0,24.0,20,0.00,,,0.00,meteohub,2013-07-02 21:58:00,
2013-07-02 17:03:00,84.0,38.7,30.17,NE,54,13.0,21.0,20,0.00,,,0.00,meteohub,2013-07-02 22:03:00,
2013-07-02 17:08:00,83.8,38.5,30.17,ENE,77,7.0,21.0,20,0.00,,,0.00,meteohub,2013-07-02 22:08:00,
2013-07-02 17:13:00,83.8,41.0,30.17,ENE,60,14.0,19.0,22,0.00,,,0.00,meteohub,2013-07-02 22:13:00,
2013-07-02 17:18:00,84.0,41.0,30.17,North,11,8.0,19.0,22,0.00,,,0.00,meteohub,2013-07-02 22:18:00,
2013-07-02 17:23:00,84.0,41.0,30.16,NE,34,5.0,16.0,22,0.00,,,0.00,meteohub,2013-07-02 22:23:00,
2013-07-02 17:28:00,83.5,40.6,30.16,NE,53,10.0,16.0,22,0.00,,,0.00,meteohub,2013-07-02 22:28:00,
2013-07-02 17:33:00,84.0,41.0,30.16,NE,51,8.0,18.0,22,0.00,,,0.00,meteohub,2013-07-02 22:33:00,
2013-07-02 17:38:00,83.7,41.9,30.16,NE,46,14.0,18.0,23,0.00,,,0.00,meteohub,2013-07-02 22:38:00,
2013-07-02 17:43:00,83.7,43.0,30.16,ESE,112,11.0,18.0,24,0.00,,,0.00,meteohub,2013-07-02 22:43:00,
2013-07-02 17:48:00,83.3,42.8,30.16,NE,44,13.0,26.0,24,0.00,,,0.00,meteohub,2013-07-02 22:48:00,
2013-07-02 17:53:00,84.0,43.3,30.16,NE,53,12.0,26.0,24,0.00,,,0.00,meteohub,2013-07-02 22:53:00,
2013-07-02 17:59:00,84.0,43.3,30.15,NE,56,11.0,26.0,24,0.00,,,0.00,meteohub,2013-07-02 22:59:00,
2013-07-02 18:04:00,83.8,42.1,30.15,ENE,60,7.0,17.0,23,0.00,,,0.00,meteohub,2013-07-02 23:04:00,
2013-07-02 18:09:00,83.5,43.0,30.15,NE,51,11.0,19.0,24,0.00,,,0.00,meteohub,2013-07-02 23:09:00,
2013-07-02 18:14:00,83.5,43.0,30.15,ENE,75,10.0,19.0,24,0.00,,,0.00,meteohub,2013-07-02 23:14:00,
2013-07-02 18:19:00,83.5,41.7,30.16,ENE,65,10.0,19.0,23,0.00,,,0.00,meteohub,2013-07-02 23:19:00,
2013-07-02 18:24:00,82.9,42.4,30.15,ENE,78,8.0,19.0,24,0.00,,,0.00,meteohub,2013-07-02 23:24:00,
2013-07-02 18:29:00,82.9,42.4,30.16,ENE,60,11.0,19.0,24,0.00,,,0.00,meteohub,2013-07-02 23:29:00,
2013-07-02 18:34:00,82.8,42.3,30.15,ENE,63,13.0,19.0,24,0.00,,,0.00,meteohub,2013-07-02 23:34:00,
2013-07-02 18:39:00,82.9,42.4,30.15,NE,41,6.0,16.0,24,0.00,,,0.00,meteohub,2013-07-02 23:39:00,
2013-07-02 18:44:00,83.1,42.6,30.15,ENE,65,12.0,18.0,24,0.00,,,0.00,meteohub,2013-07-02 23:44:00,
2013-07-02 18:49:00,83.3,42.8,30.15,ENE,60,9.0,18.0,24,0.00,,,0.00,meteohub,2013-07-02 23:49:00,
2013-07-02 18:54:00,82.9,42.4,30.15,NE,53,12.0,15.0,24,0.00,,,0.00,meteohub,2013-07-02 23:54:00,
2013-07-02 18:59:00,82.9,42.4,30.15,East,81,12.0,16.0,24,0.00,,,0.00,meteohub,2013-07-02 23:59:00,
2013-07-02 19:01:00,82.9,42.4,30.16,East,87,11.0,17.0,24,0.00,,,0.00,meteohub,2013-07-03 00:01:00,
2013-07-02 19:06:00,82.8,42.3,30.16,NE,56,14.0,19.0,24,0.00,,,0.00,meteohub,2013-07-03 00:06:00,
2013-07-02 19:11:00,82.6,42.1,30.16,ENE,67,11.0,20.0,24,0.00,,,0.00,meteohub,2013-07-03 00:11:00,
2013-07-02 19:16:00,82.8,42.3,30.16,ENE,64,12.0,20.0,24,0.00,,,0.00,meteohub,2013-07-03 00:16:00,
2013-07-02 19:21:00,82.8,42.3,30.16,ENE,65,8.0,20.0,24,0.00,,,0.00,meteohub,2013-07-03 00:21:00,
2013-07-02 19:23:00,82.9,42.4,30.16,ENE,68,6.0,20.0,24,0.00,,,0.00,meteohub,2013-07-03 00:23:00,
2013-07-02 19:24:00,82.9,42.4,30.16,NE,53,9.0,20.0,24,0.00,,,0.00,meteohub,2013-07-03 00:24:00,
2013-07-02 19:28:00,82.6,43.2,30.16,ENE,68,10.0,16.0,25,0.00,,,0.00,meteohub,2013-07-03 00:28:00,
2013-07-02 19:33:00,82.4,41.9,30.16,ENE,63,9.0,16.0,24,0.00,,,0.00,meteohub,2013-07-03 00:33:00,
2013-07-02 19:38:00,82.2,41.9,30.16,ENE,60,8.0,15.0,24,0.00,,,0.00,meteohub,2013-07-03 00:38:00,
2013-07-02 19:43:00,82.2,43.0,30.16,ENE,60,10.0,15.0,25,0.00,,,0.00,meteohub,2013-07-03 00:43:00,
2013-07-02 19:48:00,82.2,43.0,30.16,ENE,74,13.0,14.0,25,0.00,,,0.00,meteohub,2013-07-03 00:48:00,
2013-07-02 19:53:00,82.2,43.9,30.16,ENE,60,7.0,14.0,26,0.00,,,0.00,meteohub,2013-07-03 00:53:00,
2013-07-02 19:58:00,81.9,44.6,30.17,NE,47,9.0,14.0,27,0.00,,,0.00,meteohub,2013-07-03 00:58:00,
2013-07-02 20:00:00,81.9,44.6,30.16,ENE,65,11.0,13.0,27,0.00,,,0.00,meteohub,2013-07-03 01:00:00,
2013-07-02 20:03:00,81.9,45.5,30.16,ENE,57,13.0,13.0,28,0.00,,,0.00,meteohub,2013-07-03 01:03:00,
2013-07-02 20:08:00,81.3,46.0,30.17,ENE,74,11.0,17.0,29,0.00,,,0.00,meteohub,2013-07-03 01:08:00,
2013-07-02 20:09:00,81.3,46.0,30.17,ENE,75,12.0,17.0,29,0.00,,,0.00,meteohub,2013-07-03 01:09:00,
2013-07-02 20:14:00,81.1,45.9,30.17,East,100,9.0,17.0,29,0.00,,,0.00,meteohub,2013-07-03 01:14:00,
2013-07-02 20:19:00,81.1,45.9,30.16,ENE,60,9.0,17.0,29,0.00,,,0.00,meteohub,2013-07-03 01:19:00,
2013-07-02 20:24:00,81.1,45.9,30.16,NE,53,8.0,16.0,29,0.00,,,0.00,meteohub,2013-07-03 01:24:00,
2013-07-02 20:26:00,81.1,45.9,30.17,ENE,63,8.0,14.0,29,0.00,,,0.00,meteohub,2013-07-03 01:26:00,
2013-07-02 20:31:00,80.8,45.5,30.16,ENE,60,10.0,14.0,29,0.00,,,0.00,meteohub,2013-07-03 01:31:00,
2013-07-02 20:36:00,80.4,46.2,30.17,ENE,77,13.0,14.0,30,0.00,,,0.00,meteohub,2013-07-03 01:36:00,
2013-07-02 20:41:00,80.2,46.0,30.17,NE,53,11.0,14.0,30,0.00,,,0.00,meteohub,2013-07-03 01:41:00,
2013-07-02 20:46:00,79.9,45.7,30.17,ENE,73,5.0,14.0,30,0.00,,,0.00,meteohub,2013-07-03 01:46:00,
2013-07-02 20:49:00,79.7,46.4,30.17,ENE,78,8.0,14.0,31,0.00,,,0.00,meteohub,2013-07-03 01:49:00,
2013-07-02 20:50:00,79.5,46.2,30.17,ENE,78,6.0,13.0,31,0.00,,,0.00,meteohub,2013-07-03 01:50:00,
2013-07-02 20:55:00,79.3,46.0,30.17,East,86,6.0,13.0,31,0.00,,,0.00,meteohub,2013-07-03 01:55:00,
2013-07-02 21:00:00,79.2,45.9,30.17,ENE,78,9.0,12.0,31,0.00,,,0.00,meteohub,2013-07-03 02:00:00,
2013-07-02 21:05:00,79.0,46.6,30.17,ENE,78,4.0,10.0,32,0.00,,,0.00,meteohub,2013-07-03 02:05:00,
2013-07-02 21:10:00,78.8,45.7,30.18,ENE,68,9.0,10.0,31,0.00,,,0.00,meteohub,2013-07-03 02:10:00,
2013-07-02 21:15:00,78.6,46.2,30.18,ENE,65,9.0,11.0,32,0.00,,,0.00,meteohub,2013-07-03 02:15:00,
2013-07-02 21:20:00,78.6,46.2,30.18,ENE,65,7.0,11.0,32,0.00,,,0.00,meteohub,2013-07-03 02:20:00,
2013-07-02 21:26:00,78.4,46.2,30.18,ENE,60,6.0,11.0,32,0.00,,,0.00,meteohub,2013-07-03 02:26:00,
2013-07-02 21:31:00,78.3,46.0,30.18,ENE,67,7.0,10.0,32,0.00,,,0.00,meteohub,2013-07-03 02:31:00,
2013-07-02 21:32:00,78.3,46.0,30.18,ENE,77,6.0,10.0,32,0.00,,,0.00,meteohub,2013-07-03 02:32:00,
2013-07-02 21:37:00,78.1,46.6,30.18,ENE,78,5.0,8.0,33,0.00,,,0.00,meteohub,2013-07-03 02:37:00,
2013-07-02 21:43:00,77.7,47.1,30.18,ENE,74,4.0,8.0,34,0.00,,,0.00,meteohub,2013-07-03 02:43:00,
2013-07-02 21:46:00,77.5,46.9,30.18,East,82,5.0,8.0,34,0.00,,,0.00,meteohub,2013-07-03 02:46:00,
2013-07-02 21:51:00,77.4,46.8,30.18,ENE,78,4.0,7.0,34,0.00,,,0.00,meteohub,2013-07-03 02:51:00,
2013-07-02 21:56:00,77.2,47.5,30.18,ENE,71,4.0,7.0,35,0.00,,,0.00,meteohub,2013-07-03 02:56:00,
2013-07-02 22:01:00,76.8,47.1,30.18,East,99,5.0,6.0,35,0.00,,,0.00,meteohub,2013-07-03 03:01:00,
2013-07-02 22:02:00,76.8,47.1,30.18,East,99,5.0,6.0,35,0.00,,,0.00,meteohub,2013-07-03 03:02:00,
2013-07-02 22:07:00,76.5,47.5,30.18,East,89,5.0,6.0,36,0.00,,,0.00,meteohub,2013-07-03 03:07:00,
2013-07-02 22:12:00,75.9,47.8,30.18,East,87,4.0,8.0,37,0.00,,,0.00,meteohub,2013-07-03 03:12:00,
2013-07-02 22:17:00,75.6,47.5,30.18,East,93,5.0,8.0,37,0.00,,,0.00,meteohub,2013-07-03 03:17:00,
2013-07-02 22:20:00,75.6,48.2,30.18,East,93,2.0,8.0,38,0.00,,,0.00,meteohub,2013-07-03 03:20:00,
2013-07-02 22:25:00,75.4,48.0,30.18,East,88,5.0,6.0,38,0.00,,,0.00,meteohub,2013-07-03 03:25:00,
2013-07-02 22:30:00,75.2,48.6,30.19,ENE,78,5.0,6.0,39,0.00,,,0.00,meteohub,2013-07-03 03:30:00,
2013-07-02 22:35:00,75.0,48.4,30.18,East,99,3.0,6.0,39,0.00,,,0.00,meteohub,2013-07-03 03:35:00,
2013-07-02 22:39:00,74.8,48.9,30.19,ENE,74,3.0,6.0,40,0.00,,,0.00,meteohub,2013-07-03 03:39:00,
2013-07-02 22:44:00,74.7,48.7,30.19,East,93,3.0,6.0,40,0.00,,,0.00,meteohub,2013-07-03 03:44:00,
2013-07-02 22:49:00,74.5,49.3,30.19,East,88,3.0,6.0,41,0.00,,,0.00,meteohub,2013-07-03 03:49:00,
2013-07-02 22:54:00,74.3,49.1,30.19,ESE,102,3.0,6.0,41,0.00,,,0.00,meteohub,2013-07-03 03:54:00,
2013-07-02 22:59:00,74.1,48.9,30.19,ESE,106,3.0,5.0,41,0.00,,,0.00,meteohub,2013-07-03 03:59:00,
2013-07-02 23:00:00,74.1,48.9,30.19,East,79,2.0,5.0,41,0.00,,,0.00,meteohub,2013-07-03 04:00:00,
2013-07-02 23:01:00,74.1,48.9,30.19,ESE,102,2.0,5.0,41,0.00,,,0.00,meteohub,2013-07-03 04:01:00,
2013-07-02 23:03:00,73.9,48.7,30.19,East,89,3.0,5.0,41,0.00,,,0.00,meteohub,2013-07-03 04:03:00,
2013-07-02 23:04:00,73.9,48.7,30.19,East,93,4.0,5.0,41,0.00,,,0.00,meteohub,2013-07-03 04:04:00,
2013-07-02 23:09:00,73.8,48.6,30.19,East,92,3.0,5.0,41,0.00,,,0.00,meteohub,2013-07-03 04:09:00,
2013-07-02 23:14:00,73.6,48.4,30.19,East,88,3.0,5.0,41,0.00,,,0.00,meteohub,2013-07-03 04:14:00,
2013-07-02 23:19:00,73.6,48.4,30.19,East,100,4.0,5.0,41,0.00,,,0.00,meteohub,2013-07-03 04:19:00,
2013-07-02 23:24:00,73.2,48.7,30.19,East,86,2.0,6.0,42,0.00,,,0.00,meteohub,2013-07-03 04:24:00,
2013-07-02 23:29:00,72.9,48.4,30.19,East,84,2.0,6.0,42,0.00,,,0.00,meteohub,2013-07-03 04:29:00,
2013-07-02 23:31:00,72.9,49.1,30.19,East,100,3.0,6.0,43,0.00,,,0.00,meteohub,2013-07-03 04:31:00,
2013-07-02 23:32:00,72.9,49.1,30.19,East,100,1.0,6.0,43,0.00,,,0.00,meteohub,2013-07-03 04:32:00,
2013-07-02 23:37:00,72.7,48.9,30.19,ESE,107,2.0,4.0,43,0.00,,,0.00,meteohub,2013-07-03 04:37:00,
2013-07-02 23:42:00,72.5,48.7,30.19,East,99,1.0,4.0,43,0.00,,,0.00,meteohub,2013-07-03 04:42:00,
2013-07-02 23:45:00,72.3,49.1,30.19,ESE,110,3.0,4.0,44,0.00,,,0.00,meteohub,2013-07-03 04:45:00,
2013-07-02 23:46:00,72.3,48.6,30.19,East,100,3.0,4.0,43,0.00,,,0.00,meteohub,2013-07-03 04:46:00,
2013-07-02 23:51:00,72.3,49.1,30.19,ESE,121,3.0,3.0,44,0.00,,,0.00,meteohub,2013-07-03 04:51:00,
2013-07-02 23:53:00,72.1,49.1,30.19,East,99,2.0,3.0,44,0.00,,,0.00,meteohub,2013-07-03 04:53:00,
2013-07-02 23:58:00,72.1,49.1,30.19,ESE,109,3.0,3.0,44,0.00,,,0.00,meteohub,2013-07-03 04:58:00,